DateTime,Index
2004062118,0.0
2004062200,0.0
2004062206,0.0
2004062212,0.0
2004062218,0.0
2004062300,0.0
2004062306,0.0
2004062312,1225.0
2004062318,1600.0
2004062400,2025.0
2004062406,2500.0
2004062412,2500.0
2004062418,2500.0
2004062500,3025.0
2004062506,3025.0
2004062512,3025.0
2004062518,2500.0
2004062600,2025.0
2004062606,2025.0
2004062612,2500.0
2004062618,3025.0
2004062700,3600.0
2004062706,4225.0
2004062712,5625.0
2004062718,8100.0
2004062800,10000.0
2004062806,13225.0
2004062812,13225.0
2004062818,14400.0
2004062900,15625.0
2004062906,15625.0
2004062912,15625.0
2004062918,15625.0
2004063000,12100.0
2004063006,11025.0
2004063012,8100.0
2004063018,6400.0
2004070100,5625.0
2004070106,4225.0
2004070112,4225.0
2004070118,3025.0
2004070200,2025.0
2004070206,2025.0
2004070212,1600.0
2004070218,1600.0
2004070300,1225.0
2004070306,1225.0
2004070312,1225.0
2004070318,0.0
2004070400,0.0
2004070406,0.0
